Location: Blangy-Tronville
(49.8790°N, 2.4226°E)
Time: 02:00:33
(UTC+00:00)

Cosmos 1634 Rocket - Pass Details

Date: 18 November 2025
Orbit: 958 x 992 km, 82.9° (Epoch: 04 December)

Event Time Altitude Azimuth Distance (km) Brightness Sun altitude
Rises 19:27:05 0° 198° (SSW) 3,679 7.1 -32.6°
Reaches altitude 10° 19:29:38 10° 202° (SSW) 2,731 6.4 -33.0°
Enters shadow 19:34:52 56° 242° (WSW) 1,153 4.4 -33.8°
Exits shadow 19:42:27 - 5° (N) 2,879 6.5 -35.0°
Sets 19:44:34 0° 8° (N) 3,671 7.1 -35.3°
